User: anonymous   Login
Location: Newark
(34.1333°N, 7.9667°W)
Time: 12:43:14
(UTC+00:00)
Language:

Altair - Orbit

View from above orbital plane
View from above orbital plane
View from above satellite
View from above satellite

Ground track
Ground track

The orbit data is extracted from the following two-line orbital elements,

1    50U 60009B   21165.15847596 -.00000101  00000-0 -14799-3 0  9997
2    50  47.2329  78.6571 0114311 323.7171  35.5908 12.20117223714837
Epoch (UTC): 14 June 2021 03:48:12
Eccentricity: 0.0114311
inclination: 47.2329°
perigee height: 1501 km
apogee height: 1683 km
right ascension of ascending node: 78.6571°
argument of perigee: 323.7171°
revolutions per day: 12.20117223
mean anomaly at epoch: 35.5908°
orbit number at epoch: 71483

The dashed part of the orbit path shows where the satellite is in the earth's shadow,  

DLR